Regional Weather Roundup
Issued by NWS

Home | Current Version | Previous Version | Graphics & Text | Print | Product List | Glossary On
Versions: 1 2 3 4 5 6 7 8 9 10 11 12 13 14 15 16 17 18 19 20 21 22 23 24 25 26 27 28 29 30 31 32 33 34 35 36 37 38 39 40 41 42 43 44 45 46 47 48 49 50
000
ASUS43 KBIS 280910
RWRND

NORTH DAKOTA REGIONAL WEATHER ROUNDUP
NATIONAL WEATHER SERVICE BISMARCK ND
400 AM CDT SAT MAR 28 2015

NOTE: "FAIR" INDICATES FEW OR NO CLOUDS BELOW 12,000 FEET WITH NO
SIGNIFICANT WEATHER AND/OR OBSTRUCTIONS TO VISIBILITY.


NDZ001>003-009>011-017-281000-
NORTHWEST NORTH DAKOTA

CITY           SKY/WX    TMP DP  RH WIND       PRES   REMARKS
WILLISTON      CLEAR     30  28  92 CALM      29.88F
MINOT          PTCLDY    25  23  92 CALM      29.94F
MINOT AFB      PTCLDY    27  27 100 S5        29.93F
$$

NDZ018>021-031>035-040>046-281000-
SOUTHWEST NORTH DAKOTA

CITY           SKY/WX    TMP DP  RH WIND       PRES   REMARKS
BISMARCK       FOG       31  31 100 SE9       29.99R VSB 1
DICKINSON      CLEAR     32  28  85 S9        29.89F
GARRISON         N/A     27  25  92 CALM      29.94S
HETTINGER ARPT CLEAR     32  28  85 CALM      29.94S
$$

NDZ004>008-012>016-024-026-027-054-281000-
NORTHEAST NORTH DAKOTA

CITY           SKY/WX    TMP DP  RH WIND       PRES   REMARKS
GRAND FORKS    CLEAR     22  19  89 SE8       30.09F WCI  12
GRND FRKS AFB  MOCLDY    23  19  86 SE8       30.08S WCI  14
DEVILS LAKE    CLOUDY    28  25  86 S13       30.01S WCI  18
$$

NDZ022-023-025-028>030-036>039-047>053-281000-
SOUTHEAST NORTH DAKOTA

CITY           SKY/WX    TMP DP  RH WIND       PRES   REMARKS
FARGO          CLEAR     28  18  66 SE9       30.10F WCI  19
JAMESTOWN      CLOUDY    29  26  89 S12       30.03S WCI  19
$$




USA.gov is the U.S. government's official web portal to all federal, state and local government web resources and services.